Tracking 20628 objects as of 6-Apr-2020
HD Live streaming from Space Station
objects crossing your sky now

COSMOS 2354

Track COSMOS 2354 now!
10-day predictions
COSMOS 2354 is classified as:


NORAD ID: 25365
Int'l Code: 1998-036C
Perigee: 1,315.3 km
Apogee: 1,876.7 km
Inclination: 82.6 °
Period: 118.0 minutes
Semi major axis: 7967 km
RCS: 0.9905 m2 (medium)
Launch date: June 15, 1998
Source: Commonwealth of Independent States (former USSR) (CIS)
Launch site: PLESETSK MISSILE AND SPACE COMPLEX (PKMTR)

Satellites have a single simultaneous earth-space and space-earth channel.
aabbcc
Your satellite tracking list
Your tracking list is empty




NASA's NSSDC Master Catalog

Two Line Element Set (TLE):
1 25365U 98036C   20092.26758669 +.00000036 +00000-0 +22675-3 0  9993
2 25365 082.5806 248.4977 0352346 322.6454 102.3980 12.20840901971324
Source of the keplerian elements: AFSPC